Time,TemperatureF,DewpointF,PressureIn,WindDirection,WindDirectionDegrees,WindSpeedMPH,WindSpeedGustMPH,Humidity,HourlyPrecipIn,Conditions,Clouds,dailyrainin,SoftwareType,DateUTC
2013-01-28 00:02:00,-32.0,-39.0,-100.00,ESE,110,4.0,7.0,67,0.00,,,0.00,,2013-01-28 09:02:00,
2013-01-28 00:11:00,-32.0,-39.0,-100.00,ESE,110,4.0,7.0,67,0.00,,,0.00,,2013-01-28 09:11:00,
2013-01-28 00:21:00,-34.0,-41.0,-100.00,SE,125,4.0,7.0,67,0.00,,,0.00,,2013-01-28 09:21:00,
2013-01-28 00:32:00,-34.0,-41.0,-100.00,SE,125,4.0,7.0,67,0.00,,,0.00,,2013-01-28 09:32:00,
2013-01-28 00:41:00,-34.0,-41.0,-100.00,SE,125,4.0,7.0,67,0.00,,,0.00,,2013-01-28 09:41:00,
2013-01-28 00:51:00,-35.0,-42.0,-100.00,SE,135,4.0,10.0,66,0.00,,,0.00,,2013-01-28 09:51:00,
2013-01-28 01:01:00,-35.0,-42.0,-100.00,SE,135,4.0,10.0,66,0.00,,,0.00,,2013-01-28 10:01:00,
2013-01-28 01:11:00,-35.0,-42.0,-100.00,SE,135,4.0,10.0,66,0.00,,,0.00,,2013-01-28 10:11:00,
2013-01-28 01:21:00,-33.0,-40.0,-100.00,SE,135,6.0,9.0,67,0.00,,,0.00,,2013-01-28 10:21:00,
2013-01-28 01:31:00,-33.0,-40.0,-100.00,SE,135,6.0,9.0,67,0.00,,,0.00,,2013-01-28 10:31:00,
2013-01-28 01:41:00,-33.0,-40.0,-100.00,SE,135,6.0,9.0,67,0.00,,,0.00,,2013-01-28 10:41:00,
2013-01-28 01:51:00,-32.0,-39.0,-100.00,ESE,120,4.0,10.0,67,0.00,,,0.00,,2013-01-28 10:51:00,
2013-01-28 02:02:00,-32.0,-39.0,-100.00,ESE,120,4.0,10.0,67,0.00,,,0.00,,2013-01-28 11:02:00,
2013-01-28 02:11:00,-32.0,-39.0,-100.00,ESE,120,4.0,10.0,67,0.00,,,0.00,,2013-01-28 11:11:00,
2013-01-28 02:21:00,-32.0,-39.0,-100.00,ESE,120,4.0,10.0,67,0.00,,,0.00,,2013-01-28 11:21:00,
2013-01-28 02:32:00,-32.0,-39.0,-100.00,ESE,120,4.0,10.0,67,0.00,,,0.00,,2013-01-28 11:32:00,
2013-01-28 02:42:00,-32.0,-39.0,-100.00,ESE,120,4.0,10.0,67,0.00,,,0.00,,2013-01-28 11:42:00,
2013-01-28 02:52:00,-31.0,-38.0,-100.00,ESE,115,5.0,9.0,67,0.00,,,0.00,,2013-01-28 11:52:00,
2013-01-28 03:03:00,-31.0,-38.0,-100.00,ESE,115,5.0,9.0,67,0.00,,,0.00,,2013-01-28 12:03:00,
2013-01-28 03:11:00,-31.0,-38.0,-100.00,ESE,115,5.0,9.0,67,0.00,,,0.00,,2013-01-28 12:11:00,
2013-01-28 03:22:00,-32.0,-39.0,-100.00,ESE,110,4.0,11.0,67,0.00,,,0.00,,2013-01-28 12:22:00,
2013-01-28 03:32:00,-32.0,-39.0,-100.00,ESE,110,4.0,11.0,67,0.00,,,0.00,,2013-01-28 12:32:00,
2013-01-28 03:42:00,-32.0,-39.0,-100.00,ESE,110,4.0,11.0,67,0.00,,,0.00,,2013-01-28 12:42:00,
2013-01-28 03:52:00,-31.0,-38.0,-100.00,East,85,6.0,12.0,67,0.00,,,0.00,,2013-01-28 12:52:00,
2013-01-28 04:02:00,-31.0,-38.0,-100.00,East,85,6.0,12.0,67,0.00,,,0.00,,2013-01-28 13:02:00,
2013-01-28 04:11:00,-31.0,-38.0,-100.00,East,85,6.0,12.0,67,0.00,,,0.00,,2013-01-28 13:11:00,
2013-01-28 04:22:00,-29.0,-36.0,-100.00,East,95,4.0,10.0,67,0.00,,,0.00,,2013-01-28 13:22:00,
2013-01-28 04:33:00,-29.0,-36.0,-100.00,East,95,4.0,10.0,67,0.00,,,0.00,,2013-01-28 13:33:00,
2013-01-28 04:42:00,-29.0,-36.0,-100.00,East,95,4.0,10.0,67,0.00,,,0.00,,2013-01-28 13:42:00,
2013-01-28 04:52:00,-27.0,-34.0,-100.00,ESE,110,6.0,11.0,67,0.00,,,0.00,,2013-01-28 13:52:00,
2013-01-28 05:02:00,-27.0,-34.0,-100.00,ESE,110,6.0,11.0,67,0.00,,,0.00,,2013-01-28 14:02:00,
2013-01-28 05:12:00,-27.0,-34.0,-100.00,ESE,110,6.0,11.0,67,0.00,,,0.00,,2013-01-28 14:12:00,
2013-01-28 05:22:00,-27.0,-35.0,-100.00,East,95,4.0,9.0,67,0.00,,,0.00,,2013-01-28 14:22:00,
2013-01-28 05:32:00,-27.0,-35.0,-100.00,East,95,4.0,9.0,67,0.00,,,0.00,,2013-01-28 14:32:00,
2013-01-28 05:42:00,-27.0,-35.0,-100.00,East,95,4.0,9.0,67,0.00,,,0.00,,2013-01-28 14:42:00,
2013-01-28 05:52:00,-26.0,-33.0,-100.00,ESE,105,4.0,11.0,67,0.00,,,0.00,,2013-01-28 14:52:00,
2013-01-28 06:12:00,-26.0,-33.0,-100.00,ESE,105,4.0,11.0,67,0.00,,,0.00,,2013-01-28 15:12:00,
2013-01-28 06:22:00,-24.0,-31.0,-100.00,ENE,75,4.0,11.0,68,0.00,,,0.00,,2013-01-28 15:22:00,
2013-01-28 07:21:00,-23.0,-30.0,-100.00,East,95,5.0,14.0,68,0.00,,,0.00,,2013-01-28 16:21:00,
2013-01-28 07:52:00,-22.0,-29.0,-100.00,East,85,6.0,12.0,68,0.00,,,0.00,,2013-01-28 16:52:00,
2013-01-28 08:22:00,-21.0,-29.0,-100.00,East,85,6.0,13.0,68,0.00,,,0.00,,2013-01-28 17:22:00,
2013-01-28 08:52:00,-21.0,-28.0,-100.00,East,95,6.0,15.0,67,0.00,,,0.00,,2013-01-28 17:52:00,
2013-01-28 09:23:00,-20.0,-27.0,-100.00,ENE,75,7.0,12.0,67,0.00,,,0.00,,2013-01-28 18:23:00,
2013-01-28 09:52:00,-21.0,-28.0,-100.00,ENE,65,9.0,14.0,66,0.00,,,0.00,,2013-01-28 18:52:00,
2013-01-28 10:22:00,-20.0,-28.0,-100.00,ENE,70,7.0,13.0,65,0.00,,,0.00,,2013-01-28 19:22:00,
2013-01-28 10:42:00,-20.0,-28.0,-100.00,ENE,70,7.0,13.0,65,0.00,,,0.00,,2013-01-28 19:42:00,
2013-01-28 10:52:00,-21.0,-29.0,-100.00,ESE,110,6.0,14.0,65,0.00,,,0.00,,2013-01-28 19:52:00,
2013-01-28 11:02:00,-21.0,-29.0,-100.00,ESE,110,6.0,14.0,65,0.00,,,0.00,,2013-01-28 20:02:00,
2013-01-28 11:11:00,-21.0,-29.0,-100.00,ESE,110,6.0,14.0,65,0.00,,,0.00,,2013-01-28 20:11:00,
2013-01-28 11:21:00,-26.0,-34.0,-100.00,East,95,6.0,11.0,65,0.00,,,0.00,,2013-01-28 20:21:00,
2013-01-28 11:33:00,-26.0,-34.0,-100.00,East,95,6.0,11.0,65,0.00,,,0.00,,2013-01-28 20:33:00,
2013-01-28 11:42:00,-26.0,-34.0,-100.00,East,95,6.0,11.0,65,0.00,,,0.00,,2013-01-28 20:42:00,
2013-01-28 11:52:00,-27.0,-34.0,-100.00,SE,135,6.0,12.0,65,0.00,,,0.00,,2013-01-28 20:52:00,
2013-01-28 12:02:00,-27.0,-34.0,-100.00,SE,135,6.0,12.0,65,0.00,,,0.00,,2013-01-28 21:02:00,
2013-01-28 12:11:00,-27.0,-34.0,-100.00,SE,135,6.0,12.0,65,0.00,,,0.00,,2013-01-28 21:11:00,
2013-01-28 12:21:00,-25.0,-33.0,-100.00,ESE,115,6.0,12.0,66,0.00,,,0.00,,2013-01-28 21:21:00,
2013-01-28 12:33:00,-25.0,-33.0,-100.00,ESE,115,6.0,12.0,66,0.00,,,0.00,,2013-01-28 21:33:00,
2013-01-28 12:42:00,-25.0,-33.0,-100.00,ESE,115,6.0,12.0,66,0.00,,,0.00,,2013-01-28 21:42:00,
2013-01-28 12:52:00,-26.0,-33.0,-100.00,East,95,4.0,12.0,66,0.00,,,0.00,,2013-01-28 21:52:00,
2013-01-28 13:01:00,-26.0,-33.0,-100.00,East,95,4.0,12.0,66,0.00,,,0.00,,2013-01-28 22:01:00,
2013-01-28 13:11:00,-26.0,-33.0,-100.00,East,95,4.0,12.0,66,0.00,,,0.00,,2013-01-28 22:11:00,
2013-01-28 13:22:00,-21.0,-29.0,-100.00,ESE,110,6.0,16.0,66,0.00,,,0.00,,2013-01-28 22:22:00,
2013-01-28 13:32:00,-21.0,-29.0,-100.00,ESE,110,6.0,16.0,66,0.00,,,0.00,,2013-01-28 22:32:00,
2013-01-28 13:42:00,-21.0,-29.0,-100.00,ESE,110,6.0,16.0,66,0.00,,,0.00,,2013-01-28 22:42:00,
2013-01-28 13:52:00,-18.0,-26.0,-100.00,East,80,7.0,19.0,64,0.00,,,0.00,,2013-01-28 22:52:00,
2013-01-28 14:01:00,-18.0,-26.0,-100.00,East,80,7.0,19.0,64,0.00,,,0.00,,2013-01-28 23:01:00,
2013-01-28 14:11:00,-18.0,-26.0,-100.00,East,80,7.0,19.0,64,0.00,,,0.00,,2013-01-28 23:11:00,
2013-01-28 14:22:00,-14.0,-24.0,-100.00,ENE,75,9.0,19.0,60,0.00,,,0.00,,2013-01-28 23:22:00,
2013-01-28 14:32:00,-14.0,-24.0,-100.00,ENE,75,9.0,19.0,60,0.00,,,0.00,,2013-01-28 23:32:00,
2013-01-28 14:42:00,-14.0,-24.0,-100.00,ENE,75,9.0,19.0,60,0.00,,,0.00,,2013-01-28 23:42:00,
2013-01-28 14:52:00,-13.0,-23.0,-100.00,NE,55,11.0,21.0,58,0.00,,,0.00,,2013-01-28 23:52:00,
2013-01-28 15:12:00,-13.0,-23.0,-100.00,NE,55,11.0,21.0,58,0.00,,,0.00,,2013-01-29 00:12:00,
2013-01-28 15:21:00,-13.0,-24.0,-100.00,ENE,70,7.0,19.0,57,0.00,,,0.00,,2013-01-29 00:21:00,
2013-01-28 15:32:00,-13.0,-24.0,-100.00,ENE,70,7.0,19.0,57,0.00,,,0.00,,2013-01-29 00:32:00,
2013-01-28 15:42:00,-13.0,-24.0,-100.00,ENE,70,7.0,19.0,57,0.00,,,0.00,,2013-01-29 00:42:00,
2013-01-28 15:52:00,-19.0,-29.0,-100.00,East,80,4.0,11.0,58,0.00,,,0.00,,2013-01-29 00:52:00,
2013-01-28 16:02:00,-19.0,-29.0,-100.00,East,80,4.0,11.0,58,0.00,,,0.00,,2013-01-29 01:02:00,
2013-01-28 16:11:00,-19.0,-29.0,-100.00,East,80,4.0,11.0,58,0.00,,,0.00,,2013-01-29 01:11:00,
2013-01-28 16:22:00,-25.0,-34.0,-100.00,ESE,110,2.0,15.0,62,0.00,,,0.00,,2013-01-29 01:22:00,
2013-01-28 16:32:00,-25.0,-34.0,-100.00,ESE,110,2.0,15.0,62,0.00,,,0.00,,2013-01-29 01:32:00,
2013-01-28 16:42:00,-25.0,-34.0,-100.00,ESE,110,2.0,15.0,62,0.00,,,0.00,,2013-01-29 01:42:00,
2013-01-28 16:52:00,-21.0,-29.0,-100.00,ENE,60,7.0,19.0,65,0.00,,,0.00,,2013-01-29 01:52:00,
2013-01-28 17:02:00,-21.0,-29.0,-100.00,ENE,60,7.0,19.0,65,0.00,,,0.00,,2013-01-29 02:02:00,
2013-01-28 17:11:00,-21.0,-29.0,-100.00,ENE,60,7.0,19.0,65,0.00,,,0.00,,2013-01-29 02:11:00,
2013-01-28 17:21:00,-20.0,-28.0,-100.00,ESE,110,9.0,21.0,65,0.00,,,0.00,,2013-01-29 02:21:00,
2013-01-28 17:32:00,-20.0,-28.0,-100.00,ESE,110,9.0,21.0,65,0.00,,,0.00,,2013-01-29 02:32:00,
2013-01-28 17:41:00,-20.0,-28.0,-100.00,ESE,110,9.0,21.0,65,0.00,,,0.00,,2013-01-29 02:41:00,
2013-01-28 17:52:00,-22.0,-30.0,-100.00,ENE,70,6.0,19.0,65,0.00,,,0.00,,2013-01-29 02:52:00,
2013-01-28 18:02:00,-22.0,-30.0,-100.00,ENE,70,6.0,19.0,65,0.00,,,0.00,,2013-01-29 03:02:00,
2013-01-28 18:11:00,-22.0,-30.0,-100.00,ENE,70,6.0,19.0,65,0.00,,,0.00,,2013-01-29 03:11:00,
2013-01-28 18:21:00,-25.0,-32.0,-100.00,SE,140,6.0,13.0,67,0.00,,,0.00,,2013-01-29 03:21:00,
2013-01-28 18:31:00,-25.0,-32.0,-100.00,SE,140,6.0,13.0,67,0.00,,,0.00,,2013-01-29 03:31:00,
2013-01-28 18:41:00,-25.0,-32.0,-100.00,SE,140,6.0,13.0,67,0.00,,,0.00,,2013-01-29 03:41:00,
2013-01-28 18:52:00,-24.0,-31.0,-100.00,ESE,120,7.0,17.0,68,0.00,,,0.00,,2013-01-29 03:52:00,
2013-01-28 19:01:00,-24.0,-31.0,-100.00,ESE,120,7.0,17.0,68,0.00,,,0.00,,2013-01-29 04:01:00,
2013-01-28 19:21:00,-22.0,-29.0,-100.00,East,100,4.0,17.0,68,0.00,,,0.00,,2013-01-29 04:21:00,
2013-01-28 19:32:00,-22.0,-29.0,-100.00,East,100,4.0,17.0,68,0.00,,,0.00,,2013-01-29 04:32:00,
2013-01-28 19:41:00,-22.0,-29.0,-100.00,East,100,4.0,17.0,68,0.00,,,0.00,,2013-01-29 04:41:00,
2013-01-28 19:51:00,-20.0,-28.0,-100.00,ESE,120,5.0,18.0,67,0.00,,,0.00,,2013-01-29 04:51:00,
2013-01-28 20:03:00,-20.0,-28.0,-100.00,ESE,120,5.0,18.0,67,0.00,,,0.00,,2013-01-29 05:03:00,
2013-01-28 20:12:00,-20.0,-28.0,-100.00,ESE,120,5.0,18.0,67,0.00,,,0.00,,2013-01-29 05:12:00,
2013-01-28 20:21:00,-17.0,-25.0,-100.00,ENE,70,9.0,22.0,66,0.00,,,0.00,,2013-01-29 05:21:00,
2013-01-28 20:32:00,-17.0,-25.0,-100.00,ENE,70,9.0,22.0,66,0.00,,,0.00,,2013-01-29 05:32:00,
2013-01-28 20:42:00,-17.0,-25.0,-100.00,ENE,70,9.0,22.0,66,0.00,,,0.00,,2013-01-29 05:42:00,
2013-01-28 20:52:00,-18.0,-26.0,-100.00,SE,125,5.0,17.0,66,0.00,,,0.00,,2013-01-29 05:52:00,
2013-01-28 21:01:00,-18.0,-26.0,-100.00,SE,125,5.0,17.0,66,0.00,,,0.00,,2013-01-29 06:01:00,
2013-01-28 21:11:00,-18.0,-26.0,-100.00,SE,125,5.0,17.0,66,0.00,,,0.00,,2013-01-29 06:11:00,
2013-01-28 21:21:00,-18.0,-26.0,-100.00,East,85,9.0,19.0,67,0.00,,,0.00,,2013-01-29 06:21:00,
2013-01-28 21:31:00,-18.0,-26.0,-100.00,East,85,9.0,19.0,67,0.00,,,0.00,,2013-01-29 06:31:00,
2013-01-28 21:40:00,-15.0,-23.0,-100.00,ESE,115,6.0,16.0,65,0.00,,,0.00,,2013-01-29 06:40:00,
2013-01-28 21:41:00,-18.0,-26.0,-100.00,East,85,9.0,19.0,67,0.00,,,0.00,,2013-01-29 06:41:00,
2013-01-28 21:52:00,-14.0,-22.0,-100.00,East,100,7.0,21.0,65,0.00,,,0.00,,2013-01-29 06:52:00,
2013-01-28 22:01:00,-14.0,-22.0,-100.00,East,100,7.0,21.0,65,0.00,,,0.00,,2013-01-29 07:01:00,
2013-01-28 22:11:00,-14.0,-22.0,-100.00,East,100,7.0,21.0,65,0.00,,,0.00,,2013-01-29 07:11:00,
2013-01-28 22:21:00,-15.0,-23.0,-100.00,ESE,115,6.0,16.0,65,0.00,,,0.00,,2013-01-29 07:21:00,
2013-01-28 22:31:00,-15.0,-23.0,-100.00,ESE,115,6.0,16.0,65,0.00,,,0.00,,2013-01-29 07:31:00,
2013-01-28 22:52:00,-17.0,-25.0,-100.00,ESE,110,4.0,18.0,66,0.00,,,0.00,,2013-01-29 07:52:00,
2013-01-28 23:02:00,-17.0,-25.0,-100.00,ESE,110,4.0,18.0,66,0.00,,,0.00,,2013-01-29 08:02:00,
2013-01-28 23:11:00,-17.0,-25.0,-100.00,ESE,110,4.0,18.0,66,0.00,,,0.00,,2013-01-29 08:11:00,
2013-01-28 23:21:00,-15.0,-23.0,-100.00,NE,55,7.0,21.0,65,0.00,,,0.00,,2013-01-29 08:21:00,
2013-01-28 23:31:00,-15.0,-23.0,-100.00,NE,55,7.0,21.0,65,0.00,,,0.00,,2013-01-29 08:31:00,
2013-01-28 23:41:00,-15.0,-23.0,-100.00,NE,55,7.0,21.0,65,0.00,,,0.00,,2013-01-29 08:41:00,
2013-01-28 23:52:00,-16.0,-24.0,-100.00,East,90,9.0,17.0,66,0.00,,,0.00,,2013-01-29 08:52:00,